Regional Weather Roundup
Issued by NWS

Home | Current Version | Previous Version | Graphics & Text | Print | Product List | Glossary On
Versions: 1 2 3 4 5 6 7 8 9 10 11 12 13 14 15 16 17 18 19 20 21 22 23 24 25 26 27 28 29 30 31 32 33 34 35 36 37 38 39 40 41 42 43 44 45 46 47 48 49 50
000
ASUS45 KCYS 052010
RWRWY

WYOMING REGIONAL WEATHER ROUNDUP
NATIONAL WEATHER SERVICE CHEYENNE WY
200 PM MDT TUE MAY 05 2015

NOTE:  "FAIR" INDICATES FEW OR NO CLOUDS BELOW 12,000 FEET
WITH NO SIGNIFICANT WEATHER AND/OR OBSTRUCTIONS TO VISIBILITY.

WYZ001-052100-
YELLOWSTONE NATIONAL PARK

CITY           SKY/WX    TMP DP  RH WIND       PRES   REMARKS
LK YELLOWSTONE   N/A     55  33  43 VRB5      29.95F
W YELLOWSTONE  NOT AVBL

$$
WYZ002>013-054>058-071-098>099-052100-
NORTHERN WYOMING

CITY           SKY/WX    TMP DP  RH WIND       PRES   REMARKS
JACKSON          N/A     64  34  32 CALM      29.84F
CODY           PTSUNNY   66  36  32 W7        29.79F
GREYBULL       FAIR      79  34  19 MISG      29.70F
WORLAND        FAIR      75  37  25 W5        29.72F
SHERIDAN       FAIR      73  44  35 SE21      29.77F
BUFFALO        FAIR      68  45  43 S15G22    29.84F
GILLETTE       FAIR      66  48  52 S20       29.84F
HULETT         FAIR      70  45  40 S7        29.86F
NEWCASTLE      FAIR      63  45  51 S23G29    29.90F

$$
WYZ014>020-022>026-101>103-052100-
CENTRAL WYOMING

CITY           SKY/WX    TMP DP  RH WIND       PRES   REMARKS
BIG PINEY      FAIR      62  34  35 W5        29.87F
PINEDALE       FAIR      61  32  33 CALM      29.87F
DUBOIS         MOCLDY    59  32  36 NW7       29.86F
LANDER         PTSUNNY   62  41  46 CALM      29.81F
RIVERTON       FAIR      67  39  35 CALM      29.81F
CASPER         FAIR      64  45  49 VRB5      29.82F
DOUGLAS        FAIR      65  48  54 SE22G30   29.86F

$$
WYZ021-027>030-104>119-052100-
SOUTHERN WYOMING

CITY           SKY/WX    TMP DP  RH WIND       PRES   REMARKS
EVANSTON       PTSUNNY   58  40  51 VRB3      29.89F
KEMMERER       MOCLDY    57  36  44 CALM      29.89F
FORT BRIDGER   TSTM      53  45  75 NW7       29.91F
ROCK SPRINGS   FAIR      64  33  31 VRB6      29.85F
DIXON          FAIR      65  37  34 W5        29.84F
RAWLINS        FAIR      64  36  35 MISG      29.86F
SARATOGA       FAIR      63  37  39 N7        29.86F
LARAMIE        FAIR      56  41  57 SE29G36   29.88F
CHEYENNE       LGT RAIN  47  46  97 SE14G20   29.93F VSB 1/16
TORRINGTON     CLOUDY    62  47  57 SE17      29.89F
PINE BLUFFS    CLOUDY    52  46  82 SE12G18   29.95F

$$


USA.gov is the U.S. government's official web portal to all federal, state and local government web resources and services.